owner,sensor,date,latitude,longitude,vertical_datum,sea_water_practical_salinity,qcFlag 
NERRS,ioos:station:NOAA.NERRS:wkbfrwq:1,2013-12-01T04:45:00Z,30.4162,-87.8228,2.32,14.2,1111122 
NERRS,ioos:station:NOAA.NERRS:wkbfrwq:1,2013-12-01T06:45:00Z,30.4162,-87.8228,2.18,13.5,1111122 
NERRS,ioos:station:NOAA.NERRS:wkbfrwq:1,2013-12-01T08:45:00Z,30.4162,-87.8228,2.01,12.9,1111122 
NERRS,ioos:station:NOAA.NERRS:wkbfrwq:1,2013-12-01T14:45:00Z,30.4162,-87.8228,1.85,13.9,1111122 
NERRS,ioos:station:NOAA.NERRS:wkbfrwq:1,2013-12-02T11:45:00Z,30.4162,-87.8228,1.87,13.0,1111122 
NERRS,ioos:station:NOAA.NERRS:wkbfrwq:1,2013-12-02T14:45:00Z,30.4162,-87.8228,1.75,13.2,1111122 
NERRS,ioos:station:NOAA.NERRS:wkbfrwq:1,2013-12-02T15:45:00Z,30.4162,-87.8228,1.76,13.6,1111122 
NERRS,ioos:station:NOAA.NERRS:wkbfrwq:1,2013-12-02T18:45:00Z,30.4162,-87.8228,1.96,12.3,1111122 
NERRS,ioos:station:NOAA.NERRS:wkbfrwq:1,2013-12-02T19:45:00Z,30.4162,-87.8228,2.02,12.2,1111122 
NERRS,ioos:station:NOAA.NERRS:wkbfrwq:1,2013-12-03T10:45:00Z,30.4162,-87.8228,2.15,12.4,1111122 
NERRS,ioos:station:NOAA.NERRS:wkbfrwq:1,2013-12-03T14:45:00Z,30.4162,-87.8228,1.93,13.1,1111122 
NERRS,ioos:station:NOAA.NERRS:wkbfrwq:1,2013-12-03T16:45:00Z,30.4162,-87.8228,1.9,13.3,1111122 
NERRS,ioos:station:NOAA.NERRS:wkbfrwq:1,2013-12-03T18:45:00Z,30.4162,-87.8228,2.0,11.8,1111122 
NERRS,ioos:station:NOAA.NERRS:wkbfrwq:1,2013-12-03T23:45:00Z,30.4162,-87.8228,2.32,11.2,1111122 
NERRS,ioos:station:NOAA.NERRS:wkbfrwq:1,2013-12-04T00:45:00Z,30.4162,-87.8228,2.39,11.1,1111122 
NERRS,ioos:station:NOAA.NERRS:wkbfrwq:1,2013-12-04T06:45:00Z,30.4162,-87.8228,2.55,11.5,1111122 
NERRS,ioos:station:NOAA.NERRS:wkbfrwq:1,2013-12-04T08:45:00Z,30.4162,-87.8228,2.39,11.3,1111122 
NERRS,ioos:station:NOAA.NERRS:wkbfrwq:1,2013-12-04T14:45:00Z,30.4162,-87.8228,1.97,11.3,1111122 
NERRS,ioos:station:NOAA.NERRS:wkbfrwq:1,2013-12-04T15:45:00Z,30.4162,-87.8228,1.97,12.1,1111122 
NERRS,ioos:station:NOAA.NERRS:wkbfrwq:1,2013-12-04T17:45:00Z,30.4162,-87.8228,1.95,10.9,1111122 
NERRS,ioos:station:NOAA.NERRS:wkbfrwq:1,2013-12-04T18:45:00Z,30.4162,-87.8228,1.96,11.5,1111122 
NERRS,ioos:station:NOAA.NERRS:wkbfrwq:1,2013-12-04T19:45:00Z,30.4162,-87.8228,2.04,11.0,1111122 
NERRS,ioos:station:NOAA.NERRS:wkbfrwq:1,2013-12-04T20:45:00Z,30.4162,-87.8228,2.13,10.5,1111122 
NERRS,ioos:station:NOAA.NERRS:wkbfrwq:1,2013-12-04T22:45:00Z,30.4162,-87.8228,2.23,10.8,1111122 
NERRS,ioos:station:NOAA.NERRS:wkbfrwq:1,2013-12-04T23:45:00Z,30.4162,-87.8228,2.3,10.6,1111122 
NERRS,ioos:station:NOAA.NERRS:wkbfrwq:1,2013-12-05T00:45:00Z,30.4162,-87.8228,2.39,10.3,1111122 
NERRS,ioos:station:NOAA.NERRS:wkbfrwq:1,2013-12-05T01:45:00Z,30.4162,-87.8228,2.46,10.4,1111122 
NERRS,ioos:station:NOAA.NERRS:wkbfrwq:1,2013-12-05T02:45:00Z,30.4162,-87.8228,2.54,10.7,1111122 
NERRS,ioos:station:NOAA.NERRS:wkbfrwq:1,2013-12-05T03:45:00Z,30.4162,-87.8228,2.61,10.9,1111122 
NERRS,ioos:station:NOAA.NERRS:wkbfrwq:1,2013-12-05T04:45:00Z,30.4162,-87.8228,2.67,10.9,1111122 
NERRS,ioos:station:NOAA.NERRS:wkbfrwq:1,2013-12-05T05:45:00Z,30.4162,-87.8228,2.68,10.9,1111122 
NERRS,ioos:station:NOAA.NERRS:wkbfrwq:1,2013-12-05T06:45:00Z,30.4162,-87.8228,2.64,10.8,1111122 
NERRS,ioos:station:NOAA.NERRS:wkbfrwq:1,2013-12-05T07:45:00Z,30.4162,-87.8228,2.57,11.0,1111122 
NERRS,ioos:station:NOAA.NERRS:wkbfrwq:1,2013-12-05T08:45:00Z,30.4162,-87.8228,2.49,10.6,1111122 
NERRS,ioos:station:NOAA.NERRS:wkbfrwq:1,2013-12-05T09:45:00Z,30.4162,-87.8228,2.41,10.8,1111122 
NERRS,ioos:station:NOAA.NERRS:wkbfrwq:1,2013-12-05T10:45:00Z,30.4162,-87.8228,2.33,10.6,1111122 
NERRS,ioos:station:NOAA.NERRS:wkbfrwq:1,2013-12-05T11:45:00Z,30.4162,-87.8228,2.24,10.5,1111122 
NERRS,ioos:station:NOAA.NERRS:wkbfrwq:1,2013-12-05T12:45:00Z,30.4162,-87.8228,2.19,10.4,1111122 
NERRS,ioos:station:NOAA.NERRS:wkbfrwq:1,2013-12-05T13:45:00Z,30.4162,-87.8228,2.13,10.5,1111122 
NERRS,ioos:station:NOAA.NERRS:wkbfrwq:1,2013-12-05T14:45:00Z,30.4162,-87.8228,2.07,10.4,1111122 
NERRS,ioos:station:NOAA.NERRS:wkbfrwq:1,2013-12-05T15:45:00Z,30.4162,-87.8228,2.03,10.6,1111122 
NERRS,ioos:station:NOAA.NERRS:wkbfrwq:1,2013-12-05T16:45:00Z,30.4162,-87.8228,2.02,10.6,1111122 
NERRS,ioos:station:NOAA.NERRS:wkbfrwq:1,2013-12-05T17:45:00Z,30.4162,-87.8228,2.0,10.4,1111122 
NERRS,ioos:station:NOAA.NERRS:wkbfrwq:1,2013-12-05T18:45:00Z,30.4162,-87.8228,2.0,10.4,1111122 
NERRS,ioos:station:NOAA.NERRS:wkbfrwq:1,2013-12-05T19:45:00Z,30.4162,-87.8228,2.02,10.6,1111122 
NERRS,ioos:station:NOAA.NERRS:wkbfrwq:1,2013-12-05T20:45:00Z,30.4162,-87.8228,2.09,10.8,1111122 
NERRS,ioos:station:NOAA.NERRS:wkbfrwq:1,2013-12-05T21:45:00Z,30.4162,-87.8228,2.17,9.4,1111122 
NERRS,ioos:station:NOAA.NERRS:wkbfrwq:1,2013-12-05T22:45:00Z,30.4162,-87.8228,2.22,9.6,1111122 
NERRS,ioos:station:NOAA.NERRS:wkbfrwq:1,2013-12-05T23:45:00Z,30.4162,-87.8228,2.27,9.9,1111122 
NERRS,ioos:station:NOAA.NERRS:wkbfrwq:1,2013-12-06T00:45:00Z,30.4162,-87.8228,2.33,10.0,1111122 
NERRS,ioos:station:NOAA.NERRS:wkbfrwq:1,2013-12-06T01:45:00Z,30.4162,-87.8228,2.4,10.3,1111122 
NERRS,ioos:station:NOAA.NERRS:wkbfrwq:1,2013-12-06T02:45:00Z,30.4162,-87.8228,2.49,10.3,1111122 
NERRS,ioos:station:NOAA.NERRS:wkbfrwq:1,2013-12-06T03:45:00Z,30.4162,-87.8228,2.57,10.5,1111122 
NERRS,ioos:station:NOAA.NERRS:wkbfrwq:1,2013-12-06T04:45:00Z,30.4162,-87.8228,2.63,10.9,1111122 
NERRS,ioos:station:NOAA.NERRS:wkbfrwq:1,2013-12-06T05:45:00Z,30.4162,-87.8228,2.67,11.4,1111122 
NERRS,ioos:station:NOAA.NERRS:wkbfrwq:1,2013-12-06T06:45:00Z,30.4162,-87.8228,2.66,11.3,1111122 
NERRS,ioos:station:NOAA.NERRS:wkbfrwq:1,2013-12-06T07:45:00Z,30.4162,-87.8228,2.61,11.0,1111122 
NERRS,ioos:station:NOAA.NERRS:wkbfrwq:1,2013-12-06T08:45:00Z,30.4162,-87.8228,2.55,10.7,1111122 
NERRS,ioos:station:NOAA.NERRS:wkbfrwq:1,2013-12-06T09:45:00Z,30.4162,-87.8228,2.49,10.3,1111122 
NERRS,ioos:station:NOAA.NERRS:wkbfrwq:1,2013-12-06T10:45:00Z,30.4162,-87.8228,2.43,10.4,1111122 
NERRS,ioos:station:NOAA.NERRS:wkbfrwq:1,2013-12-06T11:45:00Z,30.4162,-87.8228,2.36,10.4,1111122 
NERRS,ioos:station:NOAA.NERRS:wkbfrwq:1,2013-12-06T12:45:00Z,30.4162,-87.8228,2.29,10.1,1111122 
NERRS,ioos:station:NOAA.NERRS:wkbfrwq:1,2013-12-06T13:45:00Z,30.4162,-87.8228,2.22,10.0,1111122 
NERRS,ioos:station:NOAA.NERRS:wkbfrwq:1,2013-12-06T14:45:00Z,30.4162,-87.8228,2.18,10.1,1111122 
NERRS,ioos:station:NOAA.NERRS:wkbfrwq:1,2013-12-06T15:45:00Z,30.4162,-87.8228,2.14,10.1,1111122 
NERRS,ioos:station:NOAA.NERRS:wkbfrwq:1,2013-12-06T16:45:00Z,30.4162,-87.8228,2.1,10.2,1111122 
NERRS,ioos:station:NOAA.NERRS:wkbfrwq:1,2013-12-06T17:45:00Z,30.4162,-87.8228,2.08,10.0,1111122 
NERRS,ioos:station:NOAA.NERRS:wkbfrwq:1,2013-12-06T18:45:00Z,30.4162,-87.8228,2.03,10.0,1111122 
NERRS,ioos:station:NOAA.NERRS:wkbfrwq:1,2013-12-06T19:45:00Z,30.4162,-87.8228,2.06,10.2,1111122 
NERRS,ioos:station:NOAA.NERRS:wkbfrwq:1,2013-12-06T20:45:00Z,30.4162,-87.8228,2.14,8.9,1111122 
NERRS,ioos:station:NOAA.NERRS:wkbfrwq:1,2013-12-06T21:45:00Z,30.4162,-87.8228,2.22,9.0,1111122 
NERRS,ioos:station:NOAA.NERRS:wkbfrwq:1,2013-12-06T22:45:00Z,30.4162,-87.8228,2.25,8.9,1111122 
NERRS,ioos:station:NOAA.NERRS:wkbfrwq:1,2013-12-06T23:45:00Z,30.4162,-87.8228,2.27,9.2,1111122 
NERRS,ioos:station:NOAA.NERRS:wkbfrwq:1,2013-12-07T00:45:00Z,30.4162,-87.8228,2.32,9.3,1111122 
NERRS,ioos:station:NOAA.NERRS:wkbfrwq:1,2013-12-07T01:45:00Z,30.4162,-87.8228,2.39,9.9,1111122 
NERRS,ioos:station:NOAA.NERRS:wkbfrwq:1,2013-12-07T02:45:00Z,30.4162,-87.8228,2.45,10.0,1111122 
NERRS,ioos:station:NOAA.NERRS:wkbfrwq:1,2013-12-07T03:45:00Z,30.4162,-87.8228,2.53,9.7,1111122 
NERRS,ioos:station:NOAA.NERRS:wkbfrwq:1,2013-12-07T04:45:00Z,30.4162,-87.8228,2.56,10.2,1111122 
NERRS,ioos:station:NOAA.NERRS:wkbfrwq:1,2013-12-07T05:45:00Z,30.4162,-87.8228,2.58,10.1,1111122 
NERRS,ioos:station:NOAA.NERRS:wkbfrwq:1,2013-12-07T06:45:00Z,30.4162,-87.8228,2.44,9.5,1111122 
NERRS,ioos:station:NOAA.NERRS:wkbfrwq:1,2013-12-07T07:45:00Z,30.4162,-87.8228,2.32,8.5,1111122 
NERRS,ioos:station:NOAA.NERRS:wkbfrwq:1,2013-12-07T08:45:00Z,30.4162,-87.8228,2.29,9.6,1111122 
NERRS,ioos:station:NOAA.NERRS:wkbfrwq:1,2013-12-07T09:45:00Z,30.4162,-87.8228,2.28,9.8,1111122 
NERRS,ioos:station:NOAA.NERRS:wkbfrwq:1,2013-12-07T10:45:00Z,30.4162,-87.8228,2.21,8.9,1111122 
NERRS,ioos:station:NOAA.NERRS:wkbfrwq:1,2013-12-07T11:45:00Z,30.4162,-87.8228,2.13,9.1,1111122 
NERRS,ioos:station:NOAA.NERRS:wkbfrwq:1,2013-12-07T12:45:00Z,30.4162,-87.8228,2.04,8.4,1111122 
NERRS,ioos:station:NOAA.NERRS:wkbfrwq:1,2013-12-07T13:45:00Z,30.4162,-87.8228,1.96,9.0,1111122 
NERRS,ioos:station:NOAA.NERRS:wkbfrwq:1,2013-12-07T14:45:00Z,30.4162,-87.8228,1.9,8.9,1111122 
NERRS,ioos:station:NOAA.NERRS:wkbfrwq:1,2013-12-07T15:45:00Z,30.4162,-87.8228,1.85,9.5,1111122 
NERRS,ioos:station:NOAA.NERRS:wkbfrwq:1,2013-12-07T16:45:00Z,30.4162,-87.8228,1.84,9.9,1111122 
NERRS,ioos:station:NOAA.NERRS:wkbfrwq:1,2013-12-07T17:45:00Z,30.4162,-87.8228,1.83,8.9,1111122 
NERRS,ioos:station:NOAA.NERRS:wkbfrwq:1,2013-12-07T18:45:00Z,30.4162,-87.8228,1.8,8.0,1111122 
NERRS,ioos:station:NOAA.NERRS:wkbfrwq:1,2013-12-07T19:45:00Z,30.4162,-87.8228,1.82,7.6,1111122 
NERRS,ioos:station:NOAA.NERRS:wkbfrwq:1,2013-12-07T20:45:00Z,30.4162,-87.8228,1.86,6.5,1111122 
NERRS,ioos:station:NOAA.NERRS:wkbfrwq:1,2013-12-07T21:45:00Z,30.4162,-87.8228,1.91,7.2,1111122 
NERRS,ioos:station:NOAA.NERRS:wkbfrwq:1,2013-12-07T22:45:00Z,30.4162,-87.8228,1.94,8.2,1111122 
NERRS,ioos:station:NOAA.NERRS:wkbfrwq:1,2013-12-07T23:45:00Z,30.4162,-87.8228,2.0,8.2,1111122 
NERRS,ioos:station:NOAA.NERRS:wkbfrwq:1,2013-12-08T00:45:00Z,30.4162,-87.8228,2.07,8.2,1111122 
NERRS,ioos:station:NOAA.NERRS:wkbfrwq:1,2013-12-08T01:45:00Z,30.4162,-87.8228,2.12,9.6,1111122 
NERRS,ioos:station:NOAA.NERRS:wkbfrwq:1,2013-12-08T02:45:00Z,30.4162,-87.8228,2.16,9.9,1111122 
NERRS,ioos:station:NOAA.NERRS:wkbfrwq:1,2013-12-08T03:45:00Z,30.4162,-87.8228,2.18,10.0,1111122 
NERRS,ioos:station:NOAA.NERRS:wkbfrwq:1,2013-12-08T04:45:00Z,30.4162,-87.8228,2.24,9.7,1111122 
NERRS,ioos:station:NOAA.NERRS:wkbfrwq:1,2013-12-08T05:45:00Z,30.4162,-87.8228,2.32,9.6,1111122 
NERRS,ioos:station:NOAA.NERRS:wkbfrwq:1,2013-12-08T06:45:00Z,30.4162,-87.8228,2.38,10.2,1111122 
NERRS,ioos:station:NOAA.NERRS:wkbfrwq:1,2013-12-08T07:45:00Z,30.4162,-87.8228,2.38,11.3,1111122 
NERRS,ioos:station:NOAA.NERRS:wkbfrwq:1,2013-12-08T08:45:00Z,30.4162,-87.8228,2.37,12.0,1111122 
NERRS,ioos:station:NOAA.NERRS:wkbfrwq:1,2013-12-08T09:45:00Z,30.4162,-87.8228,2.37,12.9,1111122 
NERRS,ioos:station:NOAA.NERRS:wkbfrwq:1,2013-12-08T10:45:00Z,30.4162,-87.8228,2.35,13.5,1111122 
NERRS,ioos:station:NOAA.NERRS:wkbfrwq:1,2013-12-08T11:45:00Z,30.4162,-87.8228,2.3,12.4,1111122 
NERRS,ioos:station:NOAA.NERRS:wkbfrwq:1,2013-12-08T12:45:00Z,30.4162,-87.8228,2.23,11.3,1111122 
NERRS,ioos:station:NOAA.NERRS:wkbfrwq:1,2013-12-08T13:45:00Z,30.4162,-87.8228,2.17,11.3,1111122 
NERRS,ioos:station:NOAA.NERRS:wkbfrwq:1,2013-12-08T14:45:00Z,30.4162,-87.8228,2.14,13.0,1111122 
NERRS,ioos:station:NOAA.NERRS:wkbfrwq:1,2013-12-08T15:45:00Z,30.4162,-87.8228,2.12,13.7,1111122 
NERRS,ioos:station:NOAA.NERRS:wkbfrwq:1,2013-12-08T16:45:00Z,30.4162,-87.8228,2.13,13.9,1111122 
NERRS,ioos:station:NOAA.NERRS:wkbfrwq:1,2013-12-08T17:45:00Z,30.4162,-87.8228,2.13,13.6,1111122 
NERRS,ioos:station:NOAA.NERRS:wkbfrwq:1,2013-12-08T18:45:00Z,30.4162,-87.8228,2.16,12.8,1111122 
NERRS,ioos:station:NOAA.NERRS:wkbfrwq:1,2013-12-08T19:45:00Z,30.4162,-87.8228,2.19,12.1,1111122 
NERRS,ioos:station:NOAA.NERRS:wkbfrwq:1,2013-12-08T21:45:00Z,30.4162,-87.8228,2.21,13.2,1111122 
NERRS,ioos:station:NOAA.NERRS:wkbfrwq:1,2013-12-08T22:45:00Z,30.4162,-87.8228,2.25,13.0,1111122 
NERRS,ioos:station:NOAA.NERRS:wkbfrwq:1,2013-12-08T23:45:00Z,30.4162,-87.8228,2.31,11.7,1111122 
NERRS,ioos:station:NOAA.NERRS:wkbfrwq:1,2013-12-09T00:45:00Z,30.4162,-87.8228,2.33,11.3,1111122 
NERRS,ioos:station:NOAA.NERRS:wkbfrwq:1,2013-12-09T01:45:00Z,30.4162,-87.8228,2.32,11.4,1111122 
NERRS,ioos:station:NOAA.NERRS:wkbfrwq:1,2013-12-09T03:45:00Z,30.4162,-87.8228,2.33,11.6,1111122 
NERRS,ioos:station:NOAA.NERRS:wkbfrwq:1,2013-12-09T04:45:00Z,30.4162,-87.8228,2.38,10.9,1111122 
NERRS,ioos:station:NOAA.NERRS:wkbfrwq:1,2013-12-09T05:45:00Z,30.4162,-87.8228,2.37,10.6,1111122 
NERRS,ioos:station:NOAA.NERRS:wkbfrwq:1,2013-12-09T06:45:00Z,30.4162,-87.8228,2.37,10.7,1111122 
NERRS,ioos:station:NOAA.NERRS:wkbfrwq:1,2013-12-09T07:45:00Z,30.4162,-87.8228,2.32,11.3,1111122 
NERRS,ioos:station:NOAA.NERRS:wkbfrwq:1,2013-12-09T08:45:00Z,30.4162,-87.8228,2.27,11.2,1111122 
NERRS,ioos:station:NOAA.NERRS:wkbfrwq:1,2013-12-09T09:45:00Z,30.4162,-87.8228,2.23,12.7,1111122 
NERRS,ioos:station:NOAA.NERRS:wkbfrwq:1,2013-12-09T11:45:00Z,30.4162,-87.8228,2.19,11.3,1111122 
NERRS,ioos:station:NOAA.NERRS:wkbfrwq:1,2013-12-09T12:45:00Z,30.4162,-87.8228,2.18,11.4,1111122 
NERRS,ioos:station:NOAA.NERRS:wkbfrwq:1,2013-12-09T13:45:00Z,30.4162,-87.8228,2.18,10.9,1111122 
NERRS,ioos:station:NOAA.NERRS:wkbfrwq:1,2013-12-09T15:45:00Z,30.4162,-87.8228,2.1,11.3,1111122 
NERRS,ioos:station:NOAA.NERRS:wkbfrwq:1,2013-12-09T17:45:00Z,30.4162,-87.8228,2.08,10.6,1111122 
NERRS,ioos:station:NOAA.NERRS:wkbfrwq:1,2013-12-09T18:45:00Z,30.4162,-87.8228,2.05,10.7,1111122 
NERRS,ioos:station:NOAA.NERRS:wkbfrwq:1,2013-12-09T19:45:00Z,30.4162,-87.8228,2.09,10.8,1111122 
NERRS,ioos:station:NOAA.NERRS:wkbfrwq:1,2013-12-09T20:45:00Z,30.4162,-87.8228,2.15,10.0,1111122 
NERRS,ioos:station:NOAA.NERRS:wkbfrwq:1,2013-12-09T21:45:00Z,30.4162,-87.8228,2.17,10.2,1111122 
NERRS,ioos:station:NOAA.NERRS:wkbfrwq:1,2013-12-09T22:45:00Z,30.4162,-87.8228,2.16,10.4,1111122 
NERRS,ioos:station:NOAA.NERRS:wkbfrwq:1,2013-12-09T23:45:00Z,30.4162,-87.8228,2.23,10.8,1111122 
NERRS,ioos:station:NOAA.NERRS:wkbfrwq:1,2013-12-10T00:45:00Z,30.4162,-87.8228,2.31,10.3,1111122 
NERRS,ioos:station:NOAA.NERRS:wkbfrwq:1,2013-12-10T01:45:00Z,30.4162,-87.8228,2.36,10.5,1111122 
NERRS,ioos:station:NOAA.NERRS:wkbfrwq:1,2013-12-10T02:45:00Z,30.4162,-87.8228,2.38,10.6,1111122 
NERRS,ioos:station:NOAA.NERRS:wkbfrwq:1,2013-12-10T04:45:00Z,30.4162,-87.8228,2.27,10.8,1111122 
NERRS,ioos:station:NOAA.NERRS:wkbfrwq:1,2013-12-10T05:45:00Z,30.4162,-87.8228,2.25,11.6,1111122 
NERRS,ioos:station:NOAA.NERRS:wkbfrwq:1,2013-12-10T07:45:00Z,30.4162,-87.8228,2.28,11.1,1111122 
NERRS,ioos:station:NOAA.NERRS:wkbfrwq:1,2013-12-10T08:45:00Z,30.4162,-87.8228,2.28,11.2,1111122 
NERRS,ioos:station:NOAA.NERRS:wkbfrwq:1,2013-12-10T10:45:00Z,30.4162,-87.8228,2.28,11.2,1111122 
NERRS,ioos:station:NOAA.NERRS:wkbfrwq:1,2013-12-10T11:45:00Z,30.4162,-87.8228,2.31,11.4,1111122 
NERRS,ioos:station:NOAA.NERRS:wkbfrwq:1,2013-12-10T12:45:00Z,30.4162,-87.8228,2.35,9.6,1111122 
NERRS,ioos:station:NOAA.NERRS:wkbfrwq:1,2013-12-10T14:45:00Z,30.4162,-87.8228,2.08,10.0,1111122 
NERRS,ioos:station:NOAA.NERRS:wkbfrwq:1,2013-12-10T18:45:00Z,30.4162,-87.8228,1.98,6.9,1111122 
NERRS,ioos:station:NOAA.NERRS:wkbfrwq:1,2013-12-10T21:45:00Z,30.4162,-87.8228,1.95,8.2,1111122 
NERRS,ioos:station:NOAA.NERRS:wkbfrwq:1,2013-12-11T02:45:00Z,30.4162,-87.8228,2.11,10.6,1111122 
NERRS,ioos:station:NOAA.NERRS:wkbfrwq:1,2013-12-11T04:45:00Z,30.4162,-87.8228,2.06,9.8,1111122 
NERRS,ioos:station:NOAA.NERRS:wkbfrwq:1,2013-12-11T05:45:00Z,30.4162,-87.8228,2.0,9.7,1111122 
NERRS,ioos:station:NOAA.NERRS:wkbfrwq:1,2013-12-11T07:45:00Z,30.4162,-87.8228,2.0,10.4,1111122 
NERRS,ioos:station:NOAA.NERRS:wkbfrwq:1,2013-12-11T10:00:00Z,30.4162,-87.8228,0.0,10.1,1111122 
NERRS,ioos:station:NOAA.NERRS:wkbfrwq:1,2013-12-11T11:45:00Z,30.4162,-87.8228,2.1,10.0,1111122 
NERRS,ioos:station:NOAA.NERRS:wkbfrwq:1,2013-12-11T16:45:00Z,30.4162,-87.8228,2.18,10.1,1111122 
NERRS,ioos:station:NOAA.NERRS:wkbfrwq:1,2013-12-11T21:45:00Z,30.4162,-87.8228,2.37,10.0,1111122 
NERRS,ioos:station:NOAA.NERRS:wkbfrwq:1,2013-12-11T22:45:00Z,30.4162,-87.8228,2.38,9.9,1111122 
NERRS,ioos:station:NOAA.NERRS:wkbfrwq:1,2013-12-12T00:45:00Z,30.4162,-87.8228,2.38,11.1,1111122 
NERRS,ioos:station:NOAA.NERRS:wkbfrwq:1,2013-12-12T03:45:00Z,30.4162,-87.8228,2.3,11.2,1111122 
NERRS,ioos:station:NOAA.NERRS:wkbfrwq:1,2013-12-12T05:45:00Z,30.4162,-87.8228,2.21,10.9,1111122 
NERRS,ioos:station:NOAA.NERRS:wkbfrwq:1,2013-12-12T08:45:00Z,30.4162,-87.8228,2.01,10.8,1111122 
NERRS,ioos:station:NOAA.NERRS:wkbfrwq:1,2013-12-12T14:45:00Z,30.4162,-87.8228,1.82,11.2,1111122 
NERRS,ioos:station:NOAA.NERRS:wkbfrwq:1,2013-12-12T15:45:00Z,30.4162,-87.8228,1.86,12.5,1111122 
NERRS,ioos:station:NOAA.NERRS:wkbfrwq:1,2013-12-12T18:45:00Z,30.4162,-87.8228,2.01,12.9,1111122 
NERRS,ioos:station:NOAA.NERRS:wkbfrwq:1,2013-12-12T19:45:00Z,30.4162,-87.8228,2.03,12.7,1111122 
NERRS,ioos:station:NOAA.NERRS:wkbfrwq:1,2013-12-12T20:45:00Z,30.4162,-87.8228,2.12,10.2,1111122 
NERRS,ioos:station:NOAA.NERRS:wkbfrwq:1,2013-12-12T21:45:00Z,30.4162,-87.8228,2.15,10.6,1111122 
NERRS,ioos:station:NOAA.NERRS:wkbfrwq:1,2013-12-12T23:45:00Z,30.4162,-87.8228,2.17,12.0,1111122 
NERRS,ioos:station:NOAA.NERRS:wkbfrwq:1,2013-12-13T00:45:00Z,30.4162,-87.8228,2.2,11.4,1111122 
NERRS,ioos:station:NOAA.NERRS:wkbfrwq:1,2013-12-13T01:45:00Z,30.4162,-87.8228,2.25,11.2,1111122 
NERRS,ioos:station:NOAA.NERRS:wkbfrwq:1,2013-12-13T03:45:00Z,30.4162,-87.8228,2.21,11.7,1111122 
NERRS,ioos:station:NOAA.NERRS:wkbfrwq:1,2013-12-13T04:45:00Z,30.4162,-87.8228,2.17,12.1,1111122 
NERRS,ioos:station:NOAA.NERRS:wkbfrwq:1,2013-12-13T05:45:00Z,30.4162,-87.8228,2.12,12.5,1111122 
NERRS,ioos:station:NOAA.NERRS:wkbfrwq:1,2013-12-13T06:45:00Z,30.4162,-87.8228,2.08,11.9,1111122 
NERRS,ioos:station:NOAA.NERRS:wkbfrwq:1,2013-12-13T07:45:00Z,30.4162,-87.8228,2.02,12.3,1111122 
NERRS,ioos:station:NOAA.NERRS:wkbfrwq:1,2013-12-13T08:45:00Z,30.4162,-87.8228,1.95,11.9,1111122 
NERRS,ioos:station:NOAA.NERRS:wkbfrwq:1,2013-12-13T09:45:00Z,30.4162,-87.8228,1.89,11.4,1111122 
NERRS,ioos:station:NOAA.NERRS:wkbfrwq:1,2013-12-13T10:45:00Z,30.4162,-87.8228,1.85,11.9,1111122 
NERRS,ioos:station:NOAA.NERRS:wkbfrwq:1,2013-12-13T11:45:00Z,30.4162,-87.8228,1.84,12.8,1111122 
NERRS,ioos:station:NOAA.NERRS:wkbfrwq:1,2013-12-13T12:45:00Z,30.4162,-87.8228,1.85,13.0,1111122 
NERRS,ioos:station:NOAA.NERRS:wkbfrwq:1,2013-12-13T13:45:00Z,30.4162,-87.8228,1.88,12.8,1111122 
NERRS,ioos:station:NOAA.NERRS:wkbfrwq:1,2013-12-13T14:45:00Z,30.4162,-87.8228,1.92,12.8,1111122 
NERRS,ioos:station:NOAA.NERRS:wkbfrwq:1,2013-12-13T15:45:00Z,30.4162,-87.8228,1.99,12.8,1111122 
NERRS,ioos:station:NOAA.NERRS:wkbfrwq:1,2013-12-13T16:45:00Z,30.4162,-87.8228,2.06,12.8,1111122 
NERRS,ioos:station:NOAA.NERRS:wkbfrwq:1,2013-12-13T17:45:00Z,30.4162,-87.8228,2.12,12.1,1111122 
NERRS,ioos:station:NOAA.NERRS:wkbfrwq:1,2013-12-13T18:45:00Z,30.4162,-87.8228,2.15,12.3,1111122 
NERRS,ioos:station:NOAA.NERRS:wkbfrwq:1,2013-12-13T19:45:00Z,30.4162,-87.8228,2.21,11.8,1111122 
NERRS,ioos:station:NOAA.NERRS:wkbfrwq:1,2013-12-13T20:45:00Z,30.4162,-87.8228,2.27,11.1,1111122 
NERRS,ioos:station:NOAA.NERRS:wkbfrwq:1,2013-12-13T21:45:00Z,30.4162,-87.8228,2.3,11.5,1111122 
NERRS,ioos:station:NOAA.NERRS:wkbfrwq:1,2013-12-13T22:45:00Z,30.4162,-87.8228,2.3,11.9,1111122 
NERRS,ioos:station:NOAA.NERRS:wkbfrwq:1,2013-12-13T23:45:00Z,30.4162,-87.8228,2.34,12.7,1111122 
NERRS,ioos:station:NOAA.NERRS:wkbfrwq:1,2013-12-14T00:45:00Z,30.4162,-87.8228,2.38,11.5,1111122 
NERRS,ioos:station:NOAA.NERRS:wkbfrwq:1,2013-12-14T01:45:00Z,30.4162,-87.8228,2.36,11.8,1111122 
NERRS,ioos:station:NOAA.NERRS:wkbfrwq:1,2013-12-14T02:45:00Z,30.4162,-87.8228,2.33,12.0,1111122 
NERRS,ioos:station:NOAA.NERRS:wkbfrwq:1,2013-12-14T03:45:00Z,30.4162,-87.8228,2.33,12.9,1111122 
NERRS,ioos:station:NOAA.NERRS:wkbfrwq:1,2013-12-14T04:45:00Z,30.4162,-87.8228,2.32,12.8,1111122 
NERRS,ioos:station:NOAA.NERRS:wkbfrwq:1,2013-12-14T05:45:00Z,30.4162,-87.8228,2.26,12.5,1111122 
NERRS,ioos:station:NOAA.NERRS:wkbfrwq:1,2013-12-14T06:45:00Z,30.4162,-87.8228,2.17,12.5,1111122 
NERRS,ioos:station:NOAA.NERRS:wkbfrwq:1,2013-12-14T07:45:00Z,30.4162,-87.8228,2.13,12.5,1111122 
NERRS,ioos:station:NOAA.NERRS:wkbfrwq:1,2013-12-14T08:45:00Z,30.4162,-87.8228,2.05,13.0,1111122 
NERRS,ioos:station:NOAA.NERRS:wkbfrwq:1,2013-12-14T09:45:00Z,30.4162,-87.8228,1.98,12.4,1111122 
NERRS,ioos:station:NOAA.NERRS:wkbfrwq:1,2013-12-14T10:45:00Z,30.4162,-87.8228,1.94,12.6,1111122 
NERRS,ioos:station:NOAA.NERRS:wkbfrwq:1,2013-12-14T11:45:00Z,30.4162,-87.8228,1.95,13.7,1111122 
NERRS,ioos:station:NOAA.NERRS:wkbfrwq:1,2013-12-14T12:45:00Z,30.4162,-87.8228,1.95,13.5,1111122 
NERRS,ioos:station:NOAA.NERRS:wkbfrwq:1,2013-12-14T13:45:00Z,30.4162,-87.8228,1.95,13.1,1111122 
NERRS,ioos:station:NOAA.NERRS:wkbfrwq:1,2013-12-14T14:45:00Z,30.4162,-87.8228,2.03,13.2,1111122 
NERRS,ioos:station:NOAA.NERRS:wkbfrwq:1,2013-12-14T15:45:00Z,30.4162,-87.8228,2.13,11.0,1111122 
NERRS,ioos:station:NOAA.NERRS:wkbfrwq:1,2013-12-14T16:45:00Z,30.4162,-87.8228,2.2,11.5,1111122 
NERRS,ioos:station:NOAA.NERRS:wkbfrwq:1,2013-12-14T17:45:00Z,30.4162,-87.8228,2.21,11.7,1111122 
NERRS,ioos:station:NOAA.NERRS:wkbfrwq:1,2013-12-14T18:45:00Z,30.4162,-87.8228,2.24,12.1,1111122 
NERRS,ioos:station:NOAA.NERRS:wkbfrwq:1,2013-12-14T19:45:00Z,30.4162,-87.8228,2.3,12.3,1111122 
NERRS,ioos:station:NOAA.NERRS:wkbfrwq:1,2013-12-14T20:45:00Z,30.4162,-87.8228,2.37,11.7,1111122 
NERRS,ioos:station:NOAA.NERRS:wkbfrwq:1,2013-12-14T21:45:00Z,30.4162,-87.8228,2.38,11.6,1111122 
NERRS,ioos:station:NOAA.NERRS:wkbfrwq:1,2013-12-14T22:45:00Z,30.4162,-87.8228,2.4,11.8,1111122 
NERRS,ioos:station:NOAA.NERRS:wkbfrwq:1,2013-12-14T23:45:00Z,30.4162,-87.8228,2.48,11.8,1111122 
NERRS,ioos:station:NOAA.NERRS:wkbfrwq:1,2013-12-15T00:45:00Z,30.4162,-87.8228,2.55,11.6,1111122 
NERRS,ioos:station:NOAA.NERRS:wkbfrwq:1,2013-12-15T01:45:00Z,30.4162,-87.8228,2.59,11.7,1111122 
NERRS,ioos:station:NOAA.NERRS:wkbfrwq:1,2013-12-15T02:45:00Z,30.4162,-87.8228,2.57,11.8,1111122 
NERRS,ioos:station:NOAA.NERRS:wkbfrwq:1,2013-12-15T03:45:00Z,30.4162,-87.8228,2.5,11.8,1111122 
NERRS,ioos:station:NOAA.NERRS:wkbfrwq:1,2013-12-15T04:45:00Z,30.4162,-87.8228,2.43,11.6,1111122 
NERRS,ioos:station:NOAA.NERRS:wkbfrwq:1,2013-12-15T05:45:00Z,30.4162,-87.8228,2.37,11.6,1111122 
NERRS,ioos:station:NOAA.NERRS:wkbfrwq:1,2013-12-15T06:45:00Z,30.4162,-87.8228,2.34,11.6,1111122 
NERRS,ioos:station:NOAA.NERRS:wkbfrwq:1,2013-12-15T07:45:00Z,30.4162,-87.8228,2.41,11.8,1111122 
NERRS,ioos:station:NOAA.NERRS:wkbfrwq:1,2013-12-15T08:45:00Z,30.4162,-87.8228,2.24,9.3,1111122 
NERRS,ioos:station:NOAA.NERRS:wkbfrwq:1,2013-12-15T09:45:00Z,30.4162,-87.8228,2.11,10.6,1111122 
NERRS,ioos:station:NOAA.NERRS:wkbfrwq:1,2013-12-15T10:45:00Z,30.4162,-87.8228,2.01,10.8,1111122 
NERRS,ioos:station:NOAA.NERRS:wkbfrwq:1,2013-12-15T11:45:00Z,30.4162,-87.8228,1.93,10.9,1111122 
NERRS,ioos:station:NOAA.NERRS:wkbfrwq:1,2013-12-15T12:45:00Z,30.4162,-87.8228,1.89,10.9,1111122 
NERRS,ioos:station:NOAA.NERRS:wkbfrwq:1,2013-12-15T13:45:00Z,30.4162,-87.8228,1.84,11.1,1111122 
NERRS,ioos:station:NOAA.NERRS:wkbfrwq:1,2013-12-15T14:45:00Z,30.4162,-87.8228,1.8,9.5,1111122 
NERRS,ioos:station:NOAA.NERRS:wkbfrwq:1,2013-12-15T15:45:00Z,30.4162,-87.8228,1.77,10.1,1111122 
NERRS,ioos:station:NOAA.NERRS:wkbfrwq:1,2013-12-15T16:45:00Z,30.4162,-87.8228,1.8,9.4,1111122 
NERRS,ioos:station:NOAA.NERRS:wkbfrwq:1,2013-12-15T17:45:00Z,30.4162,-87.8228,1.87,8.1,1111122 
NERRS,ioos:station:NOAA.NERRS:wkbfrwq:1,2013-12-15T18:45:00Z,30.4162,-87.8228,1.91,8.2,1111122 
NERRS,ioos:station:NOAA.NERRS:wkbfrwq:1,2013-12-15T19:45:00Z,30.4162,-87.8228,1.98,9.2,1111122 
NERRS,ioos:station:NOAA.NERRS:wkbfrwq:1,2013-12-15T20:45:00Z,30.4162,-87.8228,2.01,10.4,1111122 
NERRS,ioos:station:NOAA.NERRS:wkbfrwq:1,2013-12-15T21:45:00Z,30.4162,-87.8228,2.09,10.1,1111122 
NERRS,ioos:station:NOAA.NERRS:wkbfrwq:1,2013-12-15T22:45:00Z,30.4162,-87.8228,2.18,10.0,1111122 
NERRS,ioos:station:NOAA.NERRS:wkbfrwq:1,2013-12-15T23:45:00Z,30.4162,-87.8228,2.24,10.8,1111122 
NERRS,ioos:station:NOAA.NERRS:wkbfrwq:1,2013-12-16T00:45:00Z,30.4162,-87.8228,2.29,11.2,1111122 
NERRS,ioos:station:NOAA.NERRS:wkbfrwq:1,2013-12-16T01:45:00Z,30.4162,-87.8228,2.36,10.8,1111122 
NERRS,ioos:station:NOAA.NERRS:wkbfrwq:1,2013-12-16T02:45:00Z,30.4162,-87.8228,2.4,10.8,1111122 